sat.trackr.live / text

‹ back to catalog

STARLINK-36550

NORAD 67495 · 2026-012C

PAYLOAD ACTIVE UNKNOWN

§ Identity

Operator
Country
US
Launch date
2026-01-18
Launch site
AFETR
Launch vehicle
Mass (kg)
RCS (m²)

Purposes: comms

External: N2YO · Heavens-Above · Gunter

§ Orbital elements

Epoch: 2026-05-24T15:14:59.213184Z

Period
94.27 min
Inclination
43.0029°
Eccentricity
0.0001776
Mean motion
15.27580288 rev/d
Perigee alt
481.8 km
Apogee alt
484.3 km
Semi-major
6,861.2 km
B*
7.4694e-4
RAAN
245.7816°
Arg perigee
280.3278°
Mean anomaly
79.7373°
Rev number
1,937

§ Raw data

STARLINK-365501 67495U 26012C   26144.63540756  .00020349  00000+0  74694-3 0  99952 67495  43.0029 245.7816 0001776 280.3278  79.7373 15.27580288 19377

JSON: /api/v1/satellites/67495 · /tle

For live sub-satellite position, see the globe view (requires WebGL).

§ Visibility from observer

Set your observer location to see the next 7 days of passes ≥ 10°. The values pass through the URL so the page stays shareable.

No JS? Fill the form by hand. The geolocation button needs JavaScript.